Weather History for Kahului, HI

Change the Weather History Date:

Sunday, December 30, 2012

  Actual Average Record
Temperature  
Mean Temperature 70 °F 72 °F  
Max Temperature 79 °F 81 °F 87 °F (1950)
Min Temperature 60 °F 64 °F 54 °F (1953)
Degree Days  
Heating Degree Days 0 0  
Month to date heating degree days 0 0  
Since 1 July heating degree days 0 0  
Cooling Degree Days 5 7  
Month to date cooling degree days 267 253  
Year to date cooling degree days 3910 3960  
Growing Degree Days 19 (Base 50)    
Moisture  
Dew Point 64 °F    
Average Humidity 78    
Maximum Humidity 93    
Minimum Humidity 62    
Precipitation  
Precipitation T in 0.10 in 0.85 in (1958)
Month to date precipitation 0.24 3.25  
Year to date precipitation 5.18 17.73  
Snow  
Snow 0.00 in - - ()
Month to date snowfall 0.0  
Since 1 July snowfall 0.0  
Snow Depth 0.00 in    
Sea Level Pressure  
Sea Level Pressure 30.01 in    
Wind  
Wind Speed 4 mph (SSE)    
Max Wind Speed 14 mph    
Max Gust Speed 15 mph    
Visibility 10 miles    
Events      
T = Trace of Precipitation, MM = Missing Value Source: NWS Daily Summary

Daily Weather History Graph

Daily Weather History Graph

Search for Another Location

Airport:

Trip Planner

Search our weather history database for the weather conditions in past years. The results will help you decide how hot, cold, wet, or windy it might be!

Date:

Astronomy

Dec. 30, 2012 Rise Set
Actual Time 7:02 AM HST 5:55 PM HST
Civil Twilight 6:37 AM HST 6:19 PM HST
Nautical Twilight 6:10 AM HST 6:46 PM HST
Astronomical Twilight 5:43 AM HST 7:14 PM HST
Moon 8:16 PM HST (12/30) 8:35 AM HST (12/30)
Length of Visible Light 11h 41m
Length of Day
10h 53m
Waning Gibbous, 94% of the Moon is Illuminated
Dec 30
Waning Gibbous
Jan 4
Last Quarter
Jan 11
New
Jan 18
First Quarter
Jan 26
Full

Hourly Weather History & Observations

Time (HST) Temp. Dew Point Humidity Pressure Visibility Wind Dir Wind Speed Gust Speed Precip Events Conditions
12:54 AM 64.9 °F 62.1 °F 90% 29.99 in 10.0 mi Calm Calm - 0.00 in   Scattered Clouds
1:54 AM 64.9 °F 61.0 °F 87% 29.98 in 10.0 mi SE 5.8 mph - N/A   Clear
2:54 AM 64.0 °F 60.1 °F 87% 29.97 in 10.0 mi SSE 3.5 mph - N/A   Clear
3:54 AM 63.0 °F 59.0 °F 87% 29.97 in 10.0 mi Calm Calm - N/A   Clear
4:54 AM 64.0 °F 60.1 °F 87% 29.97 in 10.0 mi SE 8.1 mph - N/A   Clear
5:54 AM 63.0 °F 59.0 °F 87% 29.99 in 10.0 mi Calm Calm - N/A   Clear
6:54 AM 62.1 °F 59.0 °F 90% 30.01 in 10.0 mi South 4.6 mph - N/A   Partly Cloudy
7:54 AM 66.9 °F 60.1 °F 79% 30.03 in 10.0 mi SE 4.6 mph - N/A   Scattered Clouds
8:54 AM 72.0 °F 63.0 °F 73% 30.04 in 10.0 mi WNW 4.6 mph - N/A   Scattered Clouds
9:54 AM 75.0 °F 66.0 °F 73% 30.05 in 10.0 mi West 4.6 mph - N/A   Scattered Clouds
10:54 AM 78.1 °F 64.9 °F 64% 30.04 in 10.0 mi NNE 6.9 mph - N/A   Scattered Clouds
11:54 AM 78.1 °F 64.9 °F 64% 30.02 in 10.0 mi ENE 6.9 mph - N/A   Mostly Cloudy
12:54 PM 75.9 °F 66.9 °F 74% 29.99 in 10.0 mi North 6.9 mph - N/A   Mostly Cloudy
1:54 PM 77.0 °F 66.0 °F 69% 29.97 in 10.0 mi North 5.8 mph - N/A   Mostly Cloudy
2:54 PM 75.9 °F 68.0 °F 76% 29.96 in 10.0 mi Calm Calm - N/A   Mostly Cloudy
3:54 PM 75.9 °F 66.9 °F 74% 29.98 in 10.0 mi WSW 3.5 mph - N/A   Mostly Cloudy
4:54 PM 77.0 °F 68.0 °F 74% 29.98 in 10.0 mi Calm Calm - N/A   Mostly Cloudy
5:54 PM 75.9 °F 68.0 °F 76% 30.00 in 10.0 mi WNW 3.5 mph - N/A   Mostly Cloudy
5:55 PM 75.9 °F 68.0 °F 76% 30.00 in 10.0 mi WNW 3.5 mph - N/A   Scattered Clouds
6:54 PM 73.9 °F 69.1 °F 85% 30.02 in 10.0 mi WNW 3.5 mph - N/A   Partly Cloudy
7:54 PM 71.1 °F 66.0 °F 84% 30.05 in 10.0 mi SE 4.6 mph - N/A   Clear
8:54 PM 70.0 °F 64.0 °F 81% 30.06 in 10.0 mi ESE 8.1 mph - N/A   Clear
9:54 PM 68.0 °F 64.0 °F 87% 30.05 in 10.0 mi SSE 4.6 mph - N/A   Clear
10:54 PM 66.9 °F 63.0 °F 87% 30.05 in 10.0 mi SSE 4.6 mph - N/A   Clear
11:54 PM 66.9 °F 63.0 °F 87% 30.04 in 10.0 mi South 3.5 mph - N/A   Clear